Location: Alfortville
(48.8058°N, 2.4204°E)
Time: 04:20:52
(UTC+00:00)

Cosmos 1980 Rocket - Pass Details

Date: 23 May 2022
Orbit: 827 x 851 km, 71.0° (Epoch: 05 July)

Event Time Altitude Azimuth Distance (km) Brightness Sun altitude
Rises 22:53:57 0° 242° (WSW) 3,378 5.2 -19.5°
Reaches altitude 10° 22:56:42 10° 254° (WSW) 2,451 4.6 -19.6°
Maximum altitude 23:01:33 29° 314° (NW) 1,502 4.0 -19.7°
Drops below altitude 10° 23:06:28 10° 13° (NNE) 2,477 5.6 -19.9°
Sets 23:09:16 0° 25° (NNE) 3,419 6.3 -20.0°
